Wind_Speed
13 13 12 11 10 11 12 11 10 12 13 15 17 19 20 20 19 19 18 19 19 18 17 18 21 24 27 31 36 37 36 36 29 28 23 21 20 20 18 15 12 9 8
13 14 15 14 11 11 12 12 11 11 14 16 17 17 17 17 18 19 18 19 19 18 16 16 22 23 28 33 40 40 38 34 34 30 29 22 19 18 17 14 11 8 7
14 14 15 15 15 12 12 12 11 11 13 16 16 17 16 17 18 17 17 18 18 18 16 15 18 23 31 30 39 38 38 38 37 32 30 25 22 18 14 12 9 8 9
15 14 14 15 14 13 12 11 11 12 12 15 17 17 16 16 17 16 16 15 16 15 15 14 14 11 11 35 40 43 43 41 37 32 28 21 18 17 13 11 9 12 12
13 14 13 11 13 13 11 12 12 13 12 13 15 16 15 16 15 14 14 14 13 12 11 11 12 8 11 19 33 44 41 38 37 33 28 24 21 16 11 10 13 13 10
11 12 12 12 13 11 11 12 13 14 13 12 14 15 14 15 13 12 15 13 12 11 9 10 15 9 17 22 30 35 39 41 38 35 27 24 16 12 9 7 13 11 9
10 11 11 12 12 11 11 12 13 16 14 12 11 12 10 13 10 11 12 10 12 11 9 11 16 12 15 28 40 39 42 43 34 30 28 25 19 11 8 14 13 13 7
11 11 9 10 9 9 10 11 13 17 15 13 10 9 6 10 11 11 9 10 11 10 9 11 9 19 21 23 34 37 45 36 32 30 28 25 16 12 17 16 13 8 5
8 5 7 9 6 6 6 7 11 16 15 14 11 7 5 5 10 10 7 9 8 8 7 10 15 22 21 25 35 36 38 38 36 33 31 29 17 16 16 14 11 8 5
2 2 6 6 5 5 6 8 10 12 13 13 12 11 7 7 7 7 9 6 6 8 7 12 16 21 21 37 38 43 36 36 35 31 26 20 15 16 17 14 10 6 4
2 3 5 6 4 4 6 8 11 12 11 10 13 17 11 2 5 7 9 9 8 6 12 17 21 11 27 45 38 35 40 37 33 24 17 15 19 18 13 12 8 5 3
5 6 7 6 4 4 5 7 10 11 10 9 11 13 11 8 7 11 16 16 14 12 14 18 21 28 34 38 34 39 37 32 25 18 17 14 16 14 10 9 7 4 2
9 9 8 7 5 6 6 5 7 9 8 8 10 12 13 7 8 11 17 20 18 18 13 15 27 30 34 38 42 41 36 28 21 19 20 15 15 7 9 9 5 1 1
9 10 9 5 5 5 4 3 4 8 6 5 11 13 14 12 10 13 15 19 19 21 23 19 36 34 41 43 40 36 27 23 20 18 13 9 7 9 9 5 3 1 1
9 10 8 5 3 4 2 2 3 4 5 6 8 11 12 12 16 12 13 20 29 20 19 21 26 30 41 40 33 29 26 21 17 13 10 9 10 10 8 8 3 1 2
10 9 7 6 2 3 3 3 3 3 5 7 7 7 8 12 16 12 16 15 25 26 14 25 30 25 38 26 28 23 20 18 14 10 9 9 8 9 7 5 3 3 3
10 9 7 6 3 4 4 5 6 6 6 6 6 7 8 10 17 18 13 17 23 19 22 23 26 25 32 29 28 23 16 14 12 11 11 10 8 8 6 5 3 3 3
9 8 5 6 7 6 7 9 9 9 7 5 6 9 8 9 15 17 13 22 20 17 21 25 26 27 29 32 26 22 14 14 13 12 10 7 7 6 5 4 1 3 5
9 9 7 8 11 10 12 11 10 10 10 10 10 11 11 12 16 15 15 16 17 17 17 25 26 30 34 28 24 17 13 13 12 11 10 8 7 6 3 1 4 7 9
12 11 11 12 11 11 9 11 10 9 9 11 11 12 14 10 10 13 14 15 17 20 26 26 25 35 30 23 20 18 13 11 10 10 10 7 6 3 1 2 4 7 9
12 12 13 13 11 10 10 9 11 9 9 11 12 15 15 10 11 14 20 20 19 19 25 23 26 25 24 25 19 14 13 13 11 11 9 7 4 2 2 3 4 6 9
12 11 10 10 10 10 9 8 5 2 5 8 13 17 15 17 17 14 14 14 15 26 25 23 21 20 20 19 15 13 16 15 12 15 10 7 4 5 6 5 6 9 11
11 11 9 8 9 10 11 11 6 6 8 12 17 20 22 17 20 19 20 24 23 17 21 21 14 13 13 14 14 15 16 16 15 11 8 8 6 3 4 6 6 8 11
11 10 8 9 10 13 13 12 11 13 11 14 19 23 21 24 20 21 23 21 19 19 16 10 11 12 14 16 15 16 17 15 11 9 8 9 6 2 1 2 5 11 14
10 9 7 8 10 15 15 11 12 12 15 18 20 18 19 20 20 20 16 14 14 14 15 15 15 15 17 19 16 14 12 10 10 10 8 7 7 5 5 2 8 11 14
8 8 8 8 9 15 16 14 13 15 17 18 21 22 23 20 21 17 15 15 15 14 13 16 16 14 13 14 12 11 9 8 7 7 8 8 4 2 2 3 6 10 16
Wind_Direction
269 261 264 258 255 257 258 260 261 249 239 231 225 230 234 240 239 230 233 233 229 227 233 235 228 225 216 208 198 191 187 189 182 171 177 176 173 167 167 159 161 156 171
269 260 257 254 258 261 253 255 262 249 237 231 229 234 232 236 228 226 234 233 226 227 235 242 235 235 218 204 199 199 194 187 177 173 166 168 170 167 160 164 155 163 170
272 261 259 250 249 258 255 250 258 248 243 228 223 219 225 231 223 225 237 232 224 228 241 249 240 235 216 204 209 193 186 181 173 169 156 171 169 160 163 162 154 166 164
270 263 259 252 247 255 254 250 258 246 243 230 217 216 226 231 221 230 236 227 226 230 246 256 240 242 217 206 185 179 181 176 170 163 157 163 163 165 163 150 177 165 148
273 267 263 258 244 246 251 252 251 239 233 227 216 220 226 224 221 235 225 222 224 232 249 246 228 232 214 171 187 187 182 176 164 156 162 172 166 163 152 176 158 153 150
278 269 266 248 236 242 250 250 246 230 223 220 217 219 227 218 224 233 224 222 231 229 243 245 227 232 201 196 190 189 175 166 160 160 166 154 144 130 173 158 157 158 161
283 279 265 240 232 244 253 247 239 218 210 205 206 210 213 215 225 233 221 235 235 235 244 243 235 217 186 188 178 183 163 154 161 163 155 143 124 173 175 168 164 174 138
291 275 252 223 234 243 252 249 226 199 198 196 198 192 197 214 228 230 233 242 236 230 244 237 212 189 185 189 168 160 153 158 158 153 146 127 164 181 167 173 165 148 131
296 267 219 214 227 239 247 212 191 188 195 195 193 183 162 195 203 218 219 212 225 229 229 214 196 177 182 177 168 155 158 157 149 143 138 166 180 178 171 169 163 153 134
306 166 183 204 208 212 201 175 172 182 190 195 200 185 172 186 169 168 190 189 215 195 199 183 193 178 173 157 160 164 137 135 133 140 164 167 169 171 181 173 166 142 145
189 189 174 171 176 189 172 176 175 179 192 210 204 178 184 135 204 205 161 176 163 200 201 190 145 166 161 164 152 136 134 139 148 158 153 160 168 173 179 171 161 163 161
197 171 155 143 141 147 163 175 178 187 194 209 202 207 212 217 201 198 164 163 175 175 175 183 187 173 171 155 150 142 146 151 151 149 155 156 160 174 173 175 170 176 142
178 168 148 138 134 122 113 131 177 189 206 215 212 204 209 225 221 194 179 168 168 176 178 178 182 158 151 143 145 147 152 156 151 158 167 147 169 186 174 179 159 171 125
163 166 159 144 153 119 110 116 176 191 194 231 201 199 218 231 203 194 174 160 142 158 161 137 153 160 156 152 152 152 156 153 150 158 140 160 177 169 167 151 139 166 194
161 169 165 166 156 159 135 116 158 201 227 210 197 198 207 199 191 201 203 180 164 157 139 161 138 147 155 158 156 155 154 149 159 149 162 152 165 162 137 157 161 71 19
163 170 171 175 131 136 131 134 155 181 179 183 189 189 199 193 190 172 147 169 174 157 138 150 157 147 159 142 143 149 143 151 147 142 144 132 138 144 140 113 83 56 30
162 163 169 183 167 133 121 112 116 102 125 144 153 150 143 170 187 180 164 171 179 177 156 164 151 156 162 149 147 138 142 139 131 131 126 117 135 131 111 95 89 58 346
161 165 171 164 143 123 107 99 94 91 94 109 146 159 160 165 181 175 175 172 171 170 165 156 160 161 165 148 140 130 122 133 128 122 119 121 131 128 128 118 64 343 334
150 152 140 136 131 117 107 98 97 102 99 93 103 118 130 151 171 188 179 175 171 174 164 152 153 151 159 152 152 149 137 131 126 130 126 140 143 134 125 56 308 312 317
132 132 129 133 135 128 110 104 104 105 97 95 102 112 115 134 143 163 165 155 161 156 150 134 131 145 155 150 154 155 152 139 137 130 125 126 116 129 192 273 312 317 316
126 128 125 130 132 133 135 117 114 107 93 96 110 118 117 124 122 142 158 148 148 152 152 145 144 149 152 166 166 161 159 149 144 137 129 125 130 111 49 20 23 354 334
125 128 126 122 130 136 142 147 147 107 136 125 131 134 135 130 127 126 143 159 148 150 155 156 155 157 161 166 163 159 159 156 138 130 131 134 106 96 68 37 356 343 342
138 133 130 130 143 137 140 136 117 128 132 136 141 139 139 137 136 135 127 129 138 142 138 133 142 158 169 168 160 157 156 142 142 137 137 126 122 83 50 15 351 346 351
140 142 131 127 144 150 146 133 126 124 119 132 141 145 142 142 144 139 129 130 132 144 156 162 126 134 150 158 145 138 144 150 147 146 159 152 141 107 66 29 352 359 354
135 141 139 125 140 145 140 139 139 128 125 132 147 145 155 158 153 150 140 136 142 147 143 135 128 131 136 144 150 157 166 165 164 166 165 176 155 163 188 357 358 346 338
132 136 140 134 131 151 142 139 141 139 137 136 139 139 140 143 147 151 134 136 142 142 147 150 146 138 150 160 161 171 180 178 177 165 175 190 151 129 217 311 327 343 351
Height
1480 1480 1480 1481 1481 1481 1481 1481 1481 1482 1482 1484 1486 1489 1491 1494 1496 1497 1499 1502 1504 1506 1508 1511 1512 1515 1519 1523 1527 1532 1536 1542 1547 1552 1557 1562 1566 1568 1570 1574 1576 1576 1579
1477 1476 1477 1477 1477 1478 1478 1478 1478 1479 1480 1482 1484 1487 1489 1491 1492 1494 1497 1500 1502 1504 1506 1508 1510 1512 1515 1518 1523 1529 1533 1538 1546 1551 1556 1563 1566 1567 1570 1574 1574 1577 1580
1473 1473 1472 1473 1473 1474 1474 1475 1476 1476 1477 1479 1481 1484 1487 1488 1490 1493 1495 1497 1499 1502 1503 1505 1506 1508 1512 1511 1518 1524 1532 1538 1544 1551 1555 1561 1565 1568 1571 1572 1575 1578 1581
1469 1468 1469 1469 1470 1470 1470 1471 1472 1473 1475 1477 1479 1482 1484 1486 1489 1491 1493 1495 1497 1500 1501 1503 1504 1503 1499 1503 1503 1515 1528 1535 1543 1549 1554 1561 1565 1568 1571 1573 1577 1580 1581
1465 1465 1465 1465 1466 1466 1467 1468 1469 1471 1473 1475 1478 1481 1483 1485 1488 1490 1491 1494 1497 1499 1500 1501 1503 1505 1506 1507 1510 1519 1526 1534 1542 1548 1556 1562 1567 1569 1571 1575 1577 1580 1582
1461 1461 1461 1462 1463 1463 1464 1465 1467 1469 1472 1474 1477 1480 1482 1484 1487 1488 1490 1492 1496 1498 1499 1499 1502 1505 1509 1511 1514 1522 1528 1533 1542 1548 1555 1561 1567 1569 1574 1576 1579 1582 1582
1458 1458 1458 1459 1460 1461 1462 1463 1464 1467 1470 1473 1476 1479 1481 1483 1486 1488 1490 1491 1494 1497 1498 1499 1501 1504 1509 1512 1513 1518 1524 1534 1542 1549 1555 1561 1565 1572 1576 1578 1580 1582 1582
1455 1454 1455 1456 1458 1459 1460 1460 1461 1465 1469 1472 1475 1478 1481 1484 1485 1487 1487 1490 1492 1495 1498 1499 1500 1503 1510 1514 1519 1520 1527 1535 1543 1550 1555 1558 1568 1573 1576 1578 1580 1581 1582
1452 1452 1453 1455 1457 1458 1458 1459 1460 1464 1468 1471 1474 1477 1480 1481 1483 1486 1487 1489 1491 1494 1497 1499 1503 1506 1510 1515 1520 1523 1529 1534 1544 1551 1556 1565 1569 1574 1577 1578 1581 1581 1582
1452 1452 1453 1455 1456 1457 1458 1459 1462 1465 1468 1471 1473 1476 1478 1479 1481 1485 1487 1489 1492 1494 1497 1500 1502 1506 1511 1514 1521 1519 1530 1539 1547 1553 1561 1566 1570 1574 1578 1580 1581 1582 1583
1452 1452 1454 1455 1457 1458 1458 1460 1462 1465 1468 1470 1472 1475 1477 1478 1480 1482 1486 1490 1492 1495 1497 1501 1504 1508 1504 1512 1520 1527 1535 1543 1550 1558 1562 1568 1571 1575 1578 1579 1581 1584 1585
1451 1453 1455 1456 1458 1459 1460 1461 1463 1466 1468 1470 1473 1476 1478 1480 1482 1482 1485 1490 1493 1497 1499 1501 1504 1507 1510 1517 1524 1532 1541 1548 1553 1558 1565 1569 1572 1576 1576 1579 1582 1584 1585
1452 1454 1456 1458 1459 1460 1461 1462 1464 1466 1468 1470 1472 1474 1477 1479 1482 1483 1485 1488 1494 1498 1502 1503 1506 1509 1514 1522 1529 1536 1544 1550 1555 1562 1568 1569 1572 1573 1575 1580 1583 1584 1585
1453 1456 1458 1459 1461 1461 1463 1464 1465 1466 1468 1469 1471 1473 1475 1479 1481 1483 1485 1488 1489 1497 1499 1501 1502 1511 1518 1526 1533 1540 1547 1553 1557 1564 1565 1568 1569 1573 1577 1580 1583 1584 1584
1454 1457 1459 1460 1462 1463 1464 1465 1466 1466 1468 1469 1472 1474 1475 1477 1481 1484 1486 1491 1492 1498 1503 1507 1509 1515 1523 1530 1537 1543 1548 1554 1560 1562 1566 1567 1570 1574 1576 1578 1581 1583 1583
1456 1458 1459 1461 1462 1463 1465 1465 1466 1466 1467 1468 1471 1473 1475 1477 1480 1483 1486 1492 1495 1499 1504 1509 1513 1519 1527 1531 1540 1546 1551 1556 1559 1562 1565 1568 1570 1573 1576 1577 1580 1582 1584
1456 1458 1460 1462 1463 1464 1465 1466 1467 1466 1467 1469 1471 1473 1475 1476 1479 1483 1488 1492 1496 1501 1506 1512 1517 1523 1529 1536 1543 1548 1554 1557 1559 1562 1565 1567 1572 1574 1576 1578 1581 1581 1583
1457 1459 1461 1462 1464 1465 1466 1467 1468 1468 1469 1469 1471 1473 1476 1478 1482 1485 1490 1495 1500 1504 1508 1514 1521 1527 1532 1540 1545 1550 1554 1559 1561 1563 1566 1570 1573 1575 1577 1578 1580 1580 1580
1458 1460 1462 1464 1466 1467 1468 1469 1470 1471 1472 1473 1474 1475 1477 1480 1484 1488 1493 1496 1500 1507 1512 1516 1520 1524 1532 1540 1546 1551 1555 1559 1562 1566 1569 1572 1574 1574 1575 1576 1577 1577 1575
1460 1462 1464 1466 1468 1469 1470 1472 1473 1474 1475 1476 1477 1479 1481 1485 1488 1490 1494 1498 1503 1508 1514 1520 1524 1527 1537 1542 1549 1552 1556 1560 1564 1567 1568 1571 1571 1573 1574 1573 1572 1572 1573
1462 1464 1466 1468 1470 1471 1473 1475 1476 1477 1478 1479 1481 1483 1487 1489 1492 1495 1498 1503 1507 1512 1517 1522 1527 1533 1538 1545 1549 1553 1557 1561 1563 1566 1569 1569 1570 1571 1570 1571 1571 1571 1570
1464 1466 1468 1470 1471 1473 1475 1476 1478 1479 1481 1482 1484 1487 1490 1494 1497 1501 1504 1508 1511 1515 1518 1523 1529 1534 1540 1545 1549 1552 1557 1560 1563 1565 1565 1567 1569 1568 1568 1571 1571 1569 1567
1466 1468 1470 1471 1473 1474 1476 1478 1479 1480 1481 1483 1487 1490 1494 1498 1502 1505 1509 1512 1516 1520 1524 1529 1533 1536 1540 1544 1548 1552 1557 1559 1562 1563 1564 1565 1568 1568 1569 1567 1568 1567 1565
1468 1470 1471 1472 1474 1475 1477 1479 1481 1482 1484 1486 1490 1494 1497 1502 1507 1510 1513 1516 1520 1524 1528 1531 1534 1538 1541 1545 1549 1553 1555 1557 1558 1561 1565 1566 1566 1567 1566 1566 1566 1563 1562
1471 1472 1473 1474 1475 1477 1479 1481 1483 1485 1487 1490 1494 1497 1502 1505 1510 1514 1518 1521 1524 1527 1530 1533 1536 1540 1543 1547 1550 1552 1554 1555 1558 1560 1561 1565 1565 1565 1564 1563 1562 1561 1562
1473 1474 1475 1477 1478 1480 1481 1484 1486 1488 1490 1493 1496 1500 1505 1509 1513 1517 1520 1524 1527 1529 1532 1535 1538 1541 1543 1546 1549 1551 1553 1554 1556 1558 1560 1565 1563 1562 1563 1561 1561 1561 1559